FW3312 Weather Reports


time (UTC)temp
F
wind
direction
speed
knots
gust
knots
rain 1hr
in
rain 24hr
in
rain mn
in
humidity
%
barometer
mb
20260505230530 76 341 0.0 0.0 0.00 0.00 0.00 60 1009.9
20260505230032 76 341 0.0 0.0 0.00 0.00 0.00 60 1009.9
20260505225530 76 341 0.0 0.0 0.00 0.00 0.00 60 1009.9
20260505225030 76 341 0.0 0.0 0.00 0.00 0.00 60 1009.8
20260505224528 76 341 0.0 0.0 0.00 0.00 0.00 60 1009.6
20260505224028 76 341 0.0 0.0 0.00 0.00 0.00 60 1009.6
20260505223630 76 340 0.0 0.0 0.00 0.00 0.00 60 1009.7
20260505223027 76 341 0.0 0.0 0.00 0.00 0.00 60 1009.6
20260505222530 76 341 0.0 0.0 0.00 0.00 0.00 59 1009.5
20260505221526 77 341 0.0 0.0 0.00 0.00 0.00 59 1009.5
20260505221025 77 341 0.0 0.0 0.00 0.00 0.00 59 1009.5
20260505220525 77 341 0.0 0.0 0.00 0.00 0.00 59 1009.4
20260505220032 77 341 0.0 0.0 0.00 0.00 0.00 59 1009.4
20260505215525 77 340 0.0 0.0 0.00 0.00 0.00 58 1009.4
20260505215026 77 341 0.0 0.0 0.00 0.00 0.00 58 1009.4
20260505214530 78 341 0.0 0.0 0.00 0.00 0.00 58 1009.4
20260505214027 78 341 0.0 0.0 0.00 0.00 0.00 58 1009.4
20260505213524 78 341 0.0 0.0 0.00 0.00 0.00 57 1009.4
20260505213024 78 341 0.0 0.0 0.00 0.00 0.00 57 1009.3
20260505212527 79 341 0.0 0.0 0.00 0.00 0.00 55 1009.4
20260505211524 80 341 0.0 0.9 0.00 0.00 0.00 55 1009.3
20260505211025 80 341 0.0 0.9 0.00 0.00 0.00 54 1009.4
20260505210524 81 357 0.0 0.9 0.00 0.00 0.00 53 1009.2
20260505210027 81 357 0.0 1.7 0.00 0.00 0.00 53 1009.2
20260505205527 81 357 0.0 1.7 0.00 0.00 0.00 53 1009.2
20260505205024 81 307 0.0 1.7 0.00 0.00 0.00 53 1009.2
20260505204532 82 314 0.0 2.6 0.00 0.00 0.00 52 1009.2
20260505204027 82 358 0.0 2.6 0.00 0.00 0.00 52 1009.1
20260505203523 82 3 0.9 2.6 0.00 0.00 0.00 52 1009.2
20260505203025 82 9 0.0 2.6 0.00 0.00 0.00 51 1009.1
20260505202522 81 15 0.0 5.2 0.00 0.00 0.00 53 1009.2
20260505201521 81 352 0.9 5.2 0.00 0.00 0.00 54 1009.4
20260505201021 81 37 1.7 7.0 0.00 0.00 0.00 53 1009.5
20260505200522 80 43 1.7 7.0 0.00 0.00 0.00 54 1009.6
20260505200034 80 55 1.7 5.2 0.00 0.00 0.00 54 1009.5
20260505195523 80 360 1.7 4.3 0.00 0.00 0.00 54 1009.4
20260505195020 80 54 0.0 3.5 0.00 0.00 0.00 54 1009.4
20260505194519 80 23 0.0 4.3 0.00 0.00 0.00 55 1009.5
20260505194019 80 293 0.9 5.2 0.00 0.00 0.00 55 1009.7
20260505193520 80 352 1.7 5.2 0.00 0.00 0.00 55 1009.6
20260505193019 80 356 0.9 5.2 0.00 0.00 0.00 55 1009.7
20260505192521 80 331 0.9 5.2 0.00 0.00 0.00 54 1009.6
20260505191519 81 349 1.7 4.3 0.00 0.00 0.00 53 1009.7
20260505191019 81 329 0.9 3.5 0.00 0.00 0.00 53 1009.7
20260505190518 80 9 0.9 5.2 0.00 0.00 0.00 54 1009.8
20260505190017 80 354 1.7 6.1 0.00 0.00 0.00 54 1009.8
20260505185517 81 345 1.7 6.1 0.00 0.00 0.00 53 1009.7
20260505185017 81 329 0.0 6.1 0.00 0.00 0.00 53 1009.8
20260505184516 81 9 0.9 5.2 0.00 0.00 0.00 53 1009.8
20260505184016 80 336 0.0 3.5 0.00 0.00 0.00 54 1009.7
20260505183513 80 338 1.7 4.3 0.00 0.00 0.00 55 1009.7
20260505183014 80 326 0.0 6.1 0.00 0.00 0.00 55 1009.7
20260505182513 79 37 0.9 4.3 0.00 0.00 0.00 56 1009.6
20260505181515 79 14 0.9 4.3 0.00 0.00 0.00 56 1009.7
20260505181015 79 336 1.7 3.5 0.00 0.00 0.00 56 1009.8
20260505180514 79 7 0.0 2.6 0.00 0.00 0.00 56 1009.8
20260505180013 79 315 0.0 2.6 0.00 0.00 0.00 56 1009.7
20260505175513 79 325 0.0 2.6 0.00 0.00 0.00 55 1009.7
20260505175015 79 267 0.0 2.6 0.00 0.00 0.00 55 1009.8
20260505174514 79 310 0.0 3.5 0.00 0.00 0.00 55 1009.7
20260505174013 80 348 0.9 3.5 0.00 0.00 0.00 55 1009.6
20260505173511 80 346 0.0 2.6 0.00 0.00 0.00 55 1009.6
20260505173011 79 306 0.0 2.6 0.00 0.00 0.00 55 1009.6
20260505172511 79 348 0.0 2.6 0.00 0.00 0.00 55 1009.7
20260505171515 79 311 0.0 4.3 0.00 0.00 0.00 55 1010.0
20260505171010 79 313 0.9 4.3 0.00 0.00 0.00 55 1010.0
20260505170508 79 19 0.0 4.3 0.00 0.00 0.00 55 1010.0
20260505170014 79 300 0.0 4.3 0.00 0.00 0.00 56 1010.1
20260505165507 78 284 0.0 5.2 0.00 0.00 0.00 56 1010.1
20260505165011 78 315 0.9 5.2 0.00 0.00 0.00 56 1010.1
20260505164506 78 330 0.9 4.3 0.00 0.00 0.00 56 1010.1
20260505164006 78 336 0.0 0.9 0.00 0.00 0.00 56 1010.2
20260505163507 78 336 0.0 2.6 0.00 0.00 0.00 56 1010.3
20260505163008 78 336 0.0 2.6 0.00 0.00 0.00 56 1010.4
20260505162506 78 333 0.9 3.5 0.00 0.00 0.00 56 1010.5
20260505161506 78 12 0.0 3.5 0.00 0.00 0.00 56 1010.5
20260505161006 78 345 0.0 3.5 0.00 0.00 0.00 56 1010.7
20260505160507 78 342 0.9 6.1 0.00 0.00 0.00 56 1010.8
20260505153003 78 37 1.7 7.0 0.00 0.00 0.00 55 1010.8
20260505152501 77 40 2.6 7.8 0.00 0.00 0.00 55 1010.9
20260505151503 76 49 1.7 7.0 0.00 0.00 0.00 56 1011.0
20260505151104 76 86 1.7 7.0 0.00 0.00 0.00 56 1011.1
20260505150559 76 35 1.7 7.0 0.00 0.00 0.00 56 1011.2
20260505140548 72 93 1.7 6.1 0.00 0.00 0.00 59 1011.9
20260505125034 68 81 2.6 7.0 0.00 0.00 0.00 67 1011.7
20260505124538 67 47 3.5 7.0 0.00 0.00 0.00 67 1011.7
20260505124032 67 36 2.6 8.7 0.00 0.00 0.00 67 1011.7
20260505123534 67 32 2.6 8.7 0.00 0.00 0.00 68 1011.7
20260505123029 67 347 3.5 7.8 0.00 0.00 0.00 68 1011.6
20260505122528 66 36 0.9 4.3 0.00 0.00 0.00 68 1011.4
20260505121528 66 50 1.7 7.8 0.00 0.00 0.00 68 1011.4
20260505121028 66 80 1.7 7.0 0.00 0.00 0.00 68 1011.3
20260505120530 66 54 3.5 7.0 0.00 0.00 0.00 69 1011.3
20260505120027 65 46 1.7 6.1 0.00 0.00 0.00 68 1011.2
20260505115527 65 355 1.7 4.3 0.00 0.00 0.00 68 1011.4
20260505115027 65 53 0.9 5.2 0.00 0.00 0.00 69 1011.4
20260505114527 65 56 1.7 5.2 0.00 0.00 0.00 69 1011.4
20260505114027 65 39 1.7 4.3 0.00 0.00 0.00 69 1011.4
20260505113527 65 48 1.7 4.3 0.00 0.00 0.00 69 1011.4
20260505113026 65 41 0.9 4.3 0.00 0.00 0.00 69 1011.4
20260505112525 65 85 0.9 3.5 0.00 0.00 0.00 69 1011.4
20260505111533 65 40 0.9 3.5 0.00 0.00 0.00 69 1011.2
20260505111024 65 46 1.7 3.5 0.00 0.00 0.00 69 1011.1
20260505110524 65 87 0.0 3.5 0.00 0.00 0.00 69 1011.0
20260505101523 65 34 2.6 5.2 0.00 0.00 0.00 68 1010.5
20260505101023 65 57 1.7 6.1 0.00 0.00 0.00 68 1010.4
20260505100526 65 54 1.7 6.1 0.00 0.00 0.00 68 1010.5
20260505100027 65 30 2.6 5.2 0.00 0.00 0.00 68 1010.5
20260505095522 65 60 1.7 5.2 0.00 0.00 0.00 68 1010.4
20260505095021 65 30 0.9 3.5 0.00 0.00 0.00 68 1010.3
20260505094522 65 76 1.7 4.3 0.00 0.00 0.00 69 1010.3
20260505094022 65 47 0.9 5.2 0.00 0.00 0.00 69 1010.3
20260505093523 65 26 1.7 5.2 0.00 0.00 0.00 69 1010.2
20260505093021 65 51 0.9 5.2 0.00 0.00 0.00 69 1010.1
20260505092525 65 49 0.9 5.2 0.00 0.00 0.00 69 1010.3
20260505091520 65 44 0.9 5.2 0.00 0.00 0.00 69 1010.1
20260505091026 65 45 2.6 6.1 0.00 0.00 0.00 69 1010.3
20260505090520 65 58 3.5 6.1 0.00 0.00 0.00 69 1010.2
20260505090021 65 42 1.7 6.1 0.00 0.00 0.00 69 1010.2
20260505085520 65 34 1.7 5.2 0.00 0.00 0.00 69 1010.2
20260505085019 65 21 1.7 6.1 0.00 0.00 0.00 69 1010.0
20260505084521 65 34 2.6 6.1 0.00 0.00 0.00 69 1010.0
20260505084018 65 43 1.7 4.3 0.00 0.00 0.00 69 1009.9
20260505083518 65 92 0.9 4.3 0.00 0.00 0.00 69 1009.9
20260505083018 65 78 1.7 5.2 0.00 0.00 0.00 68 1010.0
20260505082517 65 46 1.7 5.2 0.00 0.00 0.00 68 1010.1
20260505081526 65 47 1.7 4.3 0.00 0.00 0.00 68 1010.1
20260505081017 65 63 0.9 5.2 0.00 0.00 0.00 68 1010.0
20260505080521 65 36 1.7 5.2 0.00 0.00 0.00 68 1010.2
20260505080016 65 63 0.9 4.3 0.00 0.00 0.00 68 1010.2
20260505075515 65 43 0.9 6.1 0.00 0.00 0.00 68 1010.2
20260505075019 65 48 1.7 7.0 0.00 0.00 0.00 68 1010.2
20260505074516 65 34 2.6 7.0 0.00 0.00 0.00 68 1010.3
20260505074015 65 91 1.7 6.1 0.00 0.00 0.00 68 1010.2
20260505073515 65 40 1.7 6.1 0.00 0.00 0.00 67 1010.4
20260505073014 65 133 1.7 4.3 0.00 0.00 0.00 67 1010.4
20260505072513 65 89 1.7 6.1 0.00 0.00 0.00 67 1010.5
20260505071531 65 67 1.7 5.2 0.00 0.00 0.00 67 1010.5
20260505071014 65 109 2.6 5.2 0.00 0.00 0.00 66 1010.3
20260505070517 65 45 0.0 3.5 0.00 0.00 0.00 66 1010.3
20260505070014 65 87 1.7 3.5 0.00 0.00 0.00 66 1010.2
20260505065512 65 77 1.7 3.5 0.00 0.00 0.00 65 1010.5
20260505065011 65 52 0.9 4.3 0.00 0.00 0.00 65 1010.5
20260505064520 65 62 1.7 4.3 0.00 0.00 0.00 64 1010.5
20260505064011 65 49 1.7 4.3 0.00 0.00 0.00 64 1010.6
20260505063510 65 62 1.7 3.5 0.00 0.00 0.00 63 1010.7
20260505063013 65 40 1.7 3.5 0.00 0.00 0.00 63 1010.8
20260505062509 65 45 0.9 5.2 0.00 0.00 0.00 62 1010.9
20260505061510 65 41 0.0 5.2 0.00 0.00 0.00 61 1010.8
20260505061012 65 78 0.9 3.5 0.00 0.00 0.00 61 1010.8
20260505060509 65 33 0.9 4.3 0.00 0.00 0.00 60 1010.7
20260505060007 65 69 1.7 4.3 0.00 0.00 0.00 59 1010.8
20260505055506 66 85 0.9 2.6 0.00 0.00 0.00 59 1010.6
20260505055006 66 80 0.0 4.3 0.00 0.00 0.00 59 1010.7
20260505054506 66 70 1.7 4.3 0.00 0.00 0.00 58 1010.7
20260505054006 66 348 0.9 4.3 0.00 0.00 0.00 58 1010.7
20260505053505 66 54 0.9 5.2 0.00 0.00 0.00 58 1010.8
20260505053005 66 72 0.9 5.2 0.00 0.00 0.00 58 1010.8
20260505052506 66 42 0.9 5.2 0.00 0.00 0.00 57 1010.8
20260505051506 66 54 0.9 6.1 0.00 0.00 0.00 57 1010.8
20260505051006 66 43 2.6 6.1 0.00 0.00 0.00 57 1010.8
20260505050504 66 51 1.7 7.0 0.00 0.00 0.00 56 1010.8
20260505041600 67 355 0.9 6.1 0.00 0.00 0.00 55 1010.8
20260505041059 67 40 1.7 7.0 0.00 0.00 0.00 55 1010.8
20260505040602 67 31 2.6 7.0 0.00 0.00 0.00 55 1010.7
20260505040105 67 44 1.7 6.1 0.00 0.00 0.00 55 1010.8
20260505035558 67 25 1.7 7.8 0.00 0.00 0.00 55 1010.8
20260505035057 67 28 1.7 7.8 0.00 0.00 0.00 55 1010.8
20260505034557 67 21 2.6 7.0 0.00 0.00 0.00 55 1010.9
20260505034057 67 36 2.6 7.0 0.00 0.00 0.00 55 1011.0
20260505033557 67 28 2.6 7.0 0.00 0.00 0.00 54 1011.1
20260505033100 67 338 0.9 5.2 0.00 0.00 0.00 54 1011.2
20260505032557 67 30 0.9 4.3 0.00 0.00 0.00 54 1011.2
20260505031559 67 34 0.9 4.3 0.00 0.00 0.00 54 1011.1
20260505031056 67 356 0.9 2.6 0.00 0.00 0.00 54 1011.1
20260505030555 67 40 0.9 4.3 0.00 0.00 0.00 54 1010.9
20260505030056 67 27 0.9 4.3 0.00 0.00 0.00 54 1011.0
20260505025556 67 23 0.9 4.3 0.00 0.00 0.00 54 1010.9
20260505025054 67 20 0.9 5.2 0.00 0.00 0.00 54 1010.9
20260505024555 67 30 1.7 5.2 0.00 0.00 0.00 54 1010.8
20260505024054 66 52 1.7 6.1 0.00 0.00 0.00 54 1010.7
20260505023554 66 336 2.6 6.1 0.00 0.00 0.00 54 1010.6
20260505023107 66 337 1.7 5.2 0.00 0.00 0.00 54 1010.7
20260505022554 66 25 2.6 6.1 0.00 0.00 0.00 54 1010.7
20260505021559 66 27 1.7 7.8 0.00 0.00 0.00 54 1010.6
20260505021052 66 26 2.6 7.8 0.00 0.00 0.00 54 1010.3
20260505020552 66 96 2.6 7.0 0.00 0.00 0.00 54 1010.4
20260505020056 66 19 2.6 7.0 0.00 0.00 0.00 54 1010.3
20260505015552 66 49 3.5 7.8 0.00 0.00 0.00 54 1010.3
20260505015055 66 45 2.6 7.8 0.00 0.00 0.00 54 1010.3
20260505014552 65 31 3.5 7.8 0.00 0.00 0.00 54 1010.3
20260505014053 65 24 2.6 7.8 0.00 0.00 0.00 54 1010.3
20260505013551 65 63 3.5 7.8 0.00 0.00 0.00 54 1010.3
20260505013052 65 44 2.6 5.2 0.00 0.00 0.00 54 1010.2
20260505012552 65 347 1.7 5.2 0.00 0.00 0.00 54 1010.3
20260505011554 65 49 1.7 5.2 0.00 0.00 0.00 54 1010.0
20260505011055 65 55 1.7 5.2 0.00 0.00 0.00 55 1010.1
20260505010550 65 31 1.7 5.2 0.00 0.00 0.00 55 1010.2
20260505010053 66 20 2.6 4.3 0.00 0.00 0.00 55 1010.2
20260505005550 66 44 1.7 4.3 0.00 0.00 0.00 56 1010.3
20260505005050 66 62 1.7 5.2 0.00 0.00 0.00 56 1010.3
20260505004550 66 14 1.7 5.2 0.00 0.00 0.00 56 1010.3
20260505004049 66 32 0.9 5.2 0.00 0.00 0.00 56 1010.3
20260505003549 66 33 0.0 5.2 0.00 0.00 0.00 56 1010.3
20260505003049 66 43 2.6 5.2 0.00 0.00 0.00 56 1010.3
20260505002549 67 326 1.7 3.5 0.00 0.00 0.00 55 1010.2
20260505001550 67 19 2.6 4.3 0.00 0.00 0.00 55 1010.4
20260505001050 67 348 0.0 3.5 0.00 0.00 0.00 54 1010.3
20260505000549 67 358 0.0 3.5 0.00 0.00 0.00 54 1010.3
20260505000055 67 339 0.9 2.6 0.00 0.00 0.00 53 1010.3
20260504235551 67 352 0.0 2.6 0.00 0.00 0.00 52 1010.2
20260504235049 68 345 0.0 2.6 0.00 0.00 0.00 52 1010.2
20260504234549 68 359 0.0 2.6 0.00 0.00 0.00 52 1010.1
20260504234053 68 44 0.0 2.6 0.00 0.00 0.00 51 1010.0
20260504233548 68 11 0.9 3.5 0.00 0.00 0.00 51 1009.9
20260504233052 69 27 0.9 3.5 0.00 0.00 0.00 51 1009.7
20260504232548 69 37 0.0 3.5 0.00 0.00 0.00 51 1009.6
20260504231547 69 35 0.0 2.6 0.00 0.00 0.00 50 1009.4
20260504231046 70 65 0.0 2.6 0.00 0.00 0.00 50 1009.4